一网星座-0323星 (ONEWEB-0323 )

导读 | 星芒AI

ONEWE-0323 是 OneWeb 卫星通信星座计划中的一颗低轨通信卫星,旨在为全球提供高速互联网服务。该卫星由空中客车公司制造,采用标准化设计,具备高容量通信能力。它于2023年发射,加入OneWeb的中轨道卫星群,支持偏远和农村地区的宽带接入。OneWeb 计划部署数百颗此类卫星,以构建覆盖全球的低延迟通信网络,服务于政府、航空、海运及企业用户。ONEWE-0323 的成功部署进一步推动了该公司实现全球互联网覆盖的目标。

基本信息
目录编号:
49106
目录名称:
ONEWEB-0323
国际标识:
2021-075AH
轨道中心:
EARTH
卫星名称:
一网星座-0323星
卫星全名:
一网星座-0323星 (ONEWEB-0323 )
卫星状态:
在轨 (已飞行1577 天)
发射日期:
2021-08-21 UTC
国别 :
英国 (GB)
星等 :
--
轨道信息
数据来源 国际轨道数据 AOE轨道数据
星历时间 2025-12-14T22:57:08+0800
1天前
查看轨道信息
2025-12-14T10:00:00+0800
1天前
查看轨道信息
半长轴 7591.895km 7591.904km
偏心率 0.0001674 0.0001074
轨道倾角 87.894° 87.897°
近地点辐角 120.245° 134.840°
升交点赤经 27.307° 27.416°
平近点角 239.885° 196.871°
近地点 1212.489km 1212.953km
远地点 1215.031km 1214.585km
周期 109.720分钟 109.720分钟
每日圈数 13.124341 13.124319
详细信息
平衡模式:
三轴稳定
覆盖范围:
全球
运营商:
一网卫星公司
运营商所在国:
英国
制造商(研发单位):
一网卫星公司
制造商所在国:
英国
使用方式:
暂无
卫星简介
OneWeb卫星网络由648颗重约125公斤的微型卫星组成,运行在1200公里的轨道上。 每颗卫星都能够提供至少每秒8千兆位的吞吐量,以使用其高吞吐量的Ku频段有效载荷为家庭和移动平台提供互联网接入。该卫星仍在工作。
2D轨道图
3D轨道图
轨道高度分析图
轨道倾角分析图
轨道综合分析图
查看轨道综合分析图